Content
SEND FEEDBACK

Daily
Averages
Monthly
Summary
Canada

OSKELANEO, QUEBEC


Home > North America > Canada > Quebec
Elevation: 1362 feet     Latitude: 48 01N     Longitude: 075 12W

WEATHER
 
SELECT A DAY
Number of Records: 160,439;   Date Range: 1/1/95 - 7/29/14
 
SHARE

PRINT THIS DATA

[ ← Previous Day ]
WEATHER ALMANAC - JANUARY 23, 2013
[ Next Day → ]
[ °C ]   °F
Weather ElementAverageHighLow
Temperature-23.8 °F-13.9 °F (4:00 pm)-36.8 °F (8:00 am)
Dewpoint-30.7 °F-22.2 °F (6:00 pm)-43.6 °F (8:00 am)
Humidity66.5 %76 % (11:00 pm)47 % (1:00 pm)
Barometer30.14 in30.17 in (10:00 am)30.12 in (1:00 am)
Wind Speed5.5 mph8.1 mph (11:00 am)
Weather ElementAverage
Wind DirectionWNW (281.6 °)

Weather ElementTotal
Precipitation0.01 in
Heating Degree Days90.4 (Base 65)
Averaged from 31 records on January 23, 2013
WEATHER CONDITIONS BREAKOUT
WIND DIRECTION BREAKOUT
WEATHER BY HOUR - JANUARY 23, 2013
[ °C ]   °F
Local TimeTemperatureDewpointHumidityBarometerVisibilityWind DirectionWind SpeedGust SpeedPrecipitationEventsConditions
1:00 AM-31.0 °F-37.0 °F59 %30.12 inWNW (300°)3.5 mph
1:00 AM-30.6 °F-36.6 °F73 %30.12 inWNW (300°)3.5 mph
2:00 AM-31.4 °F-36.9 °F74 %30.12 inWNW (290°)3.5 mph
3:00 AM-32.1 °F-38.0 °F73 %30.13 inWest (280°)3.5 mph
4:00 AM-33.0 °F-39.0 °F58 %30.14 inWNW (290°)3.5 mph
4:00 AM-32.6 °F-38.7 °F72 %30.14 inWNW (290°)3.5 mph
5:00 AM-34.4 °F-40.7 °F71 %30.14 inWNW (290°)3.5 mph
6:00 AM-33.9 °F-40.4 °F71 %30.14 inWNW (290°)4.6 mph
7:00 AM-36.0 °F-42.0 °F55 %30.14 inNW (310°)3.5 mph
7:00 AM-35.5 °F-42.2 °F70 %30.14 inNW (310°)3.5 mph
8:00 AM-36.8 °F-43.6 °F69 %30.16 inWest (270°)2.3 mph
9:00 AM-32.1 °F-38.2 °F72 %30.16 inWest (270°)4.6 mph
10:00 AM-26.0 °F-32.0 °F58 %30.17 inWest (270°)5.8 mph
10:00 AM-26.1 °F-32.1 °F73 %30.17 inWest (270°)5.8 mph0.01 in
11:00 AM-22.2 °F-29.6 °F69 %30.16 inWest (280°)8.1 mph
12:00 PM-19.8 °F-28.3 °F65 %30.14 inWest (270°)8.1 mph
1:00 PM-18.0 °F-27.0 °F47 %30.13 inWest (280°)8.1 mph
1:00 PM-17.7 °F-26.9 °F63 %30.13 inWest (280°)8.1 mph
2:00 PM-15.3 °F-25.1 °F62 %30.12 inWest (270°)6.9 mph
3:00 PM-14.4 °F-24.2 °F62 %30.13 inWNW (290°)8.1 mph
4:00 PM-14.0 °F-23.0 °F49 %30.13 inWest (270°)6.9 mph
4:00 PM-13.9 °F-22.5 °F65 %30.13 inWest (270°)6.9 mph
5:00 PM-15.3 °F-22.4 °F71 %30.14 inWest (270°)3.5 mph
6:00 PM-15.7 °F-22.2 °F73 %30.15 inWest (280°)5.8 mph
7:00 PM-16.0 °F-23.0 °F56 %30.16 inWest (280°)8.1 mph
7:00 PM-16.2 °F-22.9 °F72 %30.16 inWest (280°)8.1 mph
8:00 PM-16.4 °F-22.5 °F74 %30.15 inWest (280°)5.8 mph
9:00 PM-17.1 °F-23.3 °F74 %30.15 inWest (280°)6.9 mph
10:00 PM-18.0 °F-24.0 °F60 %30.14 inWest (270°)5.8 mph
10:00 PM-18.0 °F-24.0 °F74 %30.14 inWest (270°)5.8 mph
11:00 PM-18.8 °F-24.3 °F76 %30.14 inWest (280°)4.6 mph
Hourly data recorded from CWPK, located miles away from Oskelaneo, Quebec







STORIES FROM OUR PARTNERS